[[{"header":{"parameterUnit":"m.s-1","parameterCategory":1,"la1":30.2991,"la2":30.254,"lo1":-89.0895,"lo2":-89.0444,"dy":0.0017,"dx":0.0017,"nx":28,"ny":28,"refTime":"2023-10-11T21:00:00:Z","depth":0,"parameterNumber":2,"parameterNumberName":"U-component_of_WINDS"},"data":[0,0,0,0,0,0,0,0,0,0,0,0,0,0,0,0,0,0,0,0,0,0,0,0,0,0,0,0,0,0,0,0,0,0,0,0,0,0,0,0,0,0,0,0,0,0,0,0,0,0,0,0,0,0,0,0,0,0,-8.2773,-8.2772,0,-8.2694,-8.2693,-8.2692,-8.2497,-8.2493,-8.2489,-8.2485,-8.2408,-8.241,-8.2412,0,0,0,0,0,0,0,0,0,0,0,0,0,-8.2759,-8.276,-8.2773,-8.2772,-8.2771,-8.2694,-8.2693,-8.2692,-8.2498,-8.2493,-8.2488,-8.2483,-8.2408,-8.241,-8.2412,0,0,0,0,0,0,0,0,0,0,0,0,0,-8.2731,-8.2761,-8.2774,-8.2665,-8.2655,-8.2694,-8.2693,-8.2692,-8.2499,-8.2493,-8.2487,-8.2481,-8.2407,-8.2409,-8.2412,-8.2552,0,0,-8.242,-8.2421,0,0,0,0,0,0,0,0,-8.2733,-8.2732,-8.2682,-8.2673,-8.2661,-8.2599,-8.2659,-8.2645,-8.2501,-8.2558,-8.2485,-8.2478,-8.2477,-8.2473,-8.2472,-8.2548,-8.2545,-8.242,-8.2422,-8.2423,-8.2424,0,0,0,0,0,0,0,-8.2735,-8.2734,-8.2742,-8.2682,-8.2669,-8.2621,-8.261,-8.2656,-8.2553,-8.2553,-8.2538,-8.2532,-8.247,-8.247,-8.2469,-8.2544,-8.242,-8.2423,-8.2424,-8.2425,-8.2729,-8.2735,0,0,0,0,0,0,-8.2752,-8.2737,-8.2744,-8.274,-8.2682,-8.2627,-8.2614,-8.2625,-8.2552,-8.2535,-8.2537,-8.2523,-8.2469,-8.2466,-8.2466,-8.2623,-8.2423,-8.2426,-8.2427,-8.2722,-8.273,-8.2737,0,0,0,0,0,0,-8.2753,-8.2755,-8.2748,-8.2734,-8.273,-8.2633,-8.2647,-8.2627,-8.2627,-8.254,-8.2521,-8.2556,-8.2464,-8.2462,-8.2531,-8.2618,-8.2427,-8.2429,-8.2715,-8.2725,-8.2734,-8.2941,0,0,0,0,0,0,-8.2753,-8.2756,-8.2808,-8.2737,-8.2731,-8.2815,-8.2652,-8.263,-8.2631,-8.2612,-8.2553,-8.2537,-8.2459,-8.2528,-8.2534,-8.2618,-8.2431,-8.2707,-8.2719,-8.2731,-8.2926,-8.2957,-8.2983,0,0,0,0,0,-8.2753,-8.2871,-8.2812,-8.2814,-8.2794,-8.282,-8.2817,-8.2723,-8.2639,-8.2691,-8.2635,-8.2539,-8.2608,-8.2537,-8.2542,-8.2628,-8.2701,-8.2716,-8.273,-8.2913,-8.2951,-8.2982,0,0,0,0,0,0,-8.2956,-8.286,-8.2793,-8.2891,-8.2865,-8.2787,-8.2849,-8.2766,-8.2765,-8.2747,-8.2632,-8.262,-8.2705,-8.2673,-8.2596,-8.2759,-8.2638,-8.2655,-8.2776,-8.2811,-8.2839,-8.2845,-8.2434,0,0,0,0,0,-8.3012,-8.3041,-8.2955,-8.3049,-8.304,-8.2947,-8.2955,-8.2885,-8.2854,-8.2843,-8.2792,-8.2767,-8.2782,-8.2795,-8.2804,-8.292,-8.2904,-8.2982,-8.301,-8.3034,-8.305,-8.3107,-8.3141,-8.2785,-8.2785,-8.2785,0,0,-8.3129,-8.3079,-8.3104,-8.3089,-8.306,-8.3093,-8.2939,-8.2981,-8.3004,-8.2849,-8.2911,-8.2873,-8.2837,-8.293,-8.2969,-8.2906,-8.3144,-8.3053,-8.3072,-8.3074,-8.3126,-8.316,-8.319,-8.2795,-8.2793,-8.2791,0,0,-8.3357,-8.3323,-8.3396,-8.3371,-8.3329,-8.3266,-8.3285,-8.3219,-8.3187,-8.3247,-8.3131,-8.3158,-8.3187,-8.3166,-8.3159,-8.3377,-8.3289,-8.3384,-8.3532,-8.359,-8.3618,-8.3642,-8.372,-8.3749,-8.3399,-8.34,-8.34,0,-8.3507,-8.355,-8.3446,-8.3494,-8.349,-8.335,-8.3424,-8.3405,-8.337,-8.3371,-8.3301,-8.3333,-8.3299,-8.3385,-8.3438,-8.3438,-8.3455,-8.339,-8.3622,-8.3646,-8.3667,-8.3739,-8.3769,-8.3412,-8.341,-8.3409,-8.3408,0,-8.3736,-8.3768,-8.3833,-8.38,-8.3804,-8.3866,-8.3771,-8.3787,-8.3717,-8.3662,-8.3724,-8.3678,-8.3675,-8.369,-8.3623,-8.3766,-8.3729,-8.3643,-8.3519,-8.3714,-8.378,-8.3807,-8.3429,-8.3424,-8.3421,-8.3418,0,0,-8.4091,-8.3998,-8.4024,-8.4007,-8.395,-8.3973,-8.4028,-8.4023,-8.4039,-8.4019,-8.4062,-8.409,-8.4009,-8.4001,-8.393,-8.3981,-8.4156,-8.3887,-8.3885,-8.3939,-8.431,-8.4376,-8.441,-8.4097,-8.4101,-8.4105,-8.4313,0,-8.4305,-8.4392,-8.4299,-8.4406,-8.4433,-8.43,-8.4347,-8.4318,-8.4268,-8.4285,-8.4229,-8.425,-8.4142,-8.4137,-8.4181,-8.4125,-8.4229,-8.4109,-8.4136,-8.4138,-8.4149,-8.4444,-8.4513,-8.4712,-8.4339,-8.4343,-8.4346,0,-8.4567,-8.4557,-8.4666,-8.46,-8.4608,-8.4653,-8.464,-8.4658,-8.4622,-8.4582,-8.4573,-8.4486,-8.4535,-8.4415,-8.4482,-8.4402,-8.4407,-8.4382,-8.4387,-8.4386,-8.4254,-8.4451,-8.4773,-8.4803,-8.4386,-8.4383,-8.438,0,-8.4814,-8.4828,-8.4894,-8.4884,-8.481,-8.4844,-8.4815,-8.4772,-8.4775,-8.4765,-8.4765,-8.4762,-8.476,-8.476,-8.4674,-8.4594,-8.4751,-8.4624,-8.4719,-8.4722,-8.4759,-8.4758,-8.5086,-8.4763,-8.4763,-8.4762,-8.4762,0,-8.5063,-8.5135,-8.5004,-8.5046,-8.5122,-8.5014,-8.5093,-8.505,-8.5013,-8.5044,-8.4929,-8.496,-8.4845,-8.4865,-8.4798,-8.4863,-8.4863,-8.4832,-8.4814,-8.4843,-8.4847,-8.4845,-8.4829,-8.477,-8.4768,-8.4767,-8.4766,0,-8.5352,-8.5268,-8.5331,-8.5254,-8.5237,-8.5297,-8.5231,-8.5266,-8.5208,-8.5248,-8.5252,-8.5161,-8.5178,-8.5092,-8.5094,-8.5049,-8.5147,-8.5105,-8.5159,-8.5146,-8.5246,-8.5238,-8.5585,-8.5625,-8.5278,-8.5281,-8.5284,0,-8.5516,-8.5568,-8.5496,-8.5507,-8.5484,-8.5504,-8.5505,-8.5402,-8.5408,-8.537,-8.541,-8.5417,-8.5417,-8.545,-8.5385,-8.5385,-8.5343,-8.5464,-8.5342,-8.5369,-8.5344,-8.5342,-8.5346,-8.549,-8.5494,-8.5498,-8.5501,0,-8.5816,-8.5771,-8.5777,-8.5769,-8.5773,-8.5762,-8.5743,-8.576,-8.5647,-8.566,-8.5675,-8.5675,-8.5676,-8.5684,-8.5671,-8.5641,-8.5554,-8.5539,-8.5561,-8.5591,-8.562,-8.5605,-8.5228,-8.5532,-8.5529,-8.5526,-8.5525,-8.5524,-8.6047,-8.6086,-8.6041,-8.6051,-8.6026,-8.6011,-8.6039,-8.5984,-8.5993,-8.5985,-8.5923,-8.595,-8.5911,-8.5884,-8.5863,-8.5883,-8.5825,-8.5857,-8.5865,-8.5875,-8.5892,-8.5617,-8.588,-8.5879,-8.5878,-8.5877,-8.5877,0,-8.634,-8.6304,-8.6315,-8.6291,-8.6299,-8.6213,-8.6187,-8.62,-8.6224,-8.6195,-8.6196,-8.6213,-8.622,-8.6155,-8.6154,-8.6182,-8.6142,-8.6185,-8.6182,-8.6177,-8.5944,-8.5925,-8.6218,-8.6218,-8.6218,-8.6218,-8.6218,-8.6218,-8.6494,-8.6555,-8.6505,-8.6553,-8.6516,-8.6539,-8.6532,-8.6517,-8.6493,-8.6517,-8.6521,-8.6478,-8.6434,-8.6429,-8.6432,-8.6412,-8.6417,-8.6475,-8.6442,-8.6227,-8.6193,-8.6162,-8.6143,-8.6477,-8.6478,-8.6673,-8.6675,-8.6676]},{"header":{"parameterUnit":"m.s-1","parameterCategory":1,"la1":30.2991,"la2":30.254,"lo1":-89.0895,"lo2":-89.0444,"dy":0.0017,"dx":0.0017,"nx":28,"ny":28,"refTime":"2023-10-11T21:00:00:Z","depth":0,"parameterNumber":3,"parameterNumberName":"V-component_of_WINDS"},"data":[0,0,0,0,0,0,0,0,0,0,0,0,0,0,0,0,0,0,0,0,0,0,0,0,0,0,0,0,0,0,0,0,0,0,0,0,0,0,0,0,0,0,0,0,0,0,0,0,0,0,0,0,0,0,0,0,0,0,-6.6002,-6.6003,0,-6.6079,-6.608,-6.6081,-6.5964,-6.596,-6.5955,-6.5952,-6.6032,-6.6038,-6.6044,0,0,0,0,0,0,0,0,0,0,0,0,0,-6.5754,-6.5759,-6.6002,-6.6003,-6.6004,-6.6079,-6.608,-6.6081,-6.5964,-6.5959,-6.5954,-6.595,-6.603,-6.6037,-6.6044,0,0,0,0,0,0,0,0,0,0,0,0,0,-6.5849,-6.5761,-6.6001,-6.5954,-6.5951,-6.6078,-6.608,-6.6081,-6.5965,-6.5959,-6.5953,-6.5947,-6.6028,-6.6036,-6.6045,-6.6223,0,0,-6.6072,-6.6076,0,0,0,0,0,0,0,0,-6.5844,-6.5859,-6.596,-6.5958,-6.5954,-6.6005,-6.6022,-6.6129,-6.5967,-6.596,-6.5951,-6.5944,-6.6028,-6.6037,-6.6064,-6.6226,-6.623,-6.6073,-6.6078,-6.6082,-6.6085,0,0,0,0,0,0,0,-6.5838,-6.5855,-6.6032,-6.5962,-6.5958,-6.593,-6.5936,-6.6041,-6.6027,-6.596,-6.5952,-6.5962,-6.6025,-6.6056,-6.6066,-6.6231,-6.6073,-6.6081,-6.6086,-6.609,-6.6542,-6.6548,0,0,0,0,0,0,-6.5837,-6.585,-6.603,-6.6034,-6.5883,-6.5939,-6.5947,-6.5995,-6.6026,-6.6025,-6.5968,-6.5957,-6.6044,-6.6055,-6.6068,-6.6278,-6.6082,-6.6091,-6.6096,-6.6535,-6.6543,-6.6551,0,0,0,0,0,0,-6.5832,-6.5854,-6.6027,-6.594,-6.596,-6.595,-6.6005,-6.6,-6.6031,-6.6032,-6.6029,-6.6002,-6.604,-6.6055,-6.6185,-6.6279,-6.6095,-6.6103,-6.6528,-6.6538,-6.6547,-6.6699,0,0,0,0,0,0,-6.5825,-6.5853,-6.592,-6.5942,-6.5965,-6.6143,-6.6011,-6.6006,-6.6046,-6.6033,-6.6063,-6.6062,-6.6036,-6.6172,-6.6194,-6.6288,-6.611,-6.6519,-6.6532,-6.6544,-6.6686,-6.6713,-6.6737,0,0,0,0,0,-6.5817,-6.596,-6.5924,-6.5946,-6.6049,-6.6148,-6.6161,-6.6128,-6.6054,-6.6122,-6.6122,-6.6061,-6.6265,-6.6186,-6.621,-6.6308,-6.6513,-6.6528,-6.6543,-6.6675,-6.6708,-6.6736,0,0,0,0,0,0,-6.5949,-6.5962,-6.5922,-6.6077,-6.6113,-6.6128,-6.6213,-6.6164,-6.6222,-6.6207,-6.6163,-6.6171,-6.631,-6.6321,-6.6234,-6.6481,-6.6377,-6.6397,-6.6469,-6.6501,-6.6526,-6.652,-6.6117,0,0,0,0,0,-6.5997,-6.6076,-6.6083,-6.6219,-6.6239,-6.6223,-6.6265,-6.6236,-6.6271,-6.6286,-6.6296,-6.6332,-6.6404,-6.6453,-6.6519,-6.6687,-6.6692,-6.6766,-6.6791,-6.6812,-6.6831,-6.692,-6.6953,-6.66,-6.66,-6.66,0,0,-6.6095,-6.6112,-6.6165,-6.6246,-6.627,-6.6354,-6.6236,-6.633,-6.6391,-6.63,-6.6423,-6.6432,-6.6469,-6.6619,-6.6685,-6.6633,-6.6929,-6.6831,-6.6848,-6.6855,-6.6939,-6.6973,-6.7002,-6.661,-6.6608,-6.6607,0,0,-6.6318,-6.6338,-6.6454,-6.648,-6.6518,-6.6506,-6.6534,-6.6557,-6.656,-6.6682,-6.6615,-6.6688,-6.6813,-6.6843,-6.6875,-6.7108,-6.7054,-6.7131,-6.7265,-6.7353,-6.738,-6.7405,-6.7489,-6.7519,-6.7149,-6.715,-6.715,0,-6.6436,-6.6559,-6.6519,-6.6618,-6.6656,-6.6576,-6.6693,-6.672,-6.6778,-6.6806,-6.6747,-6.6902,-6.6922,-6.7077,-6.7134,-6.7162,-6.7193,-6.7128,-6.7379,-6.7404,-6.7426,-6.7506,-6.7537,-6.7159,-6.7158,-6.7157,-6.7156,0,-6.6702,-6.6789,-6.6877,-6.6935,-6.6983,-6.709,-6.7067,-6.712,-6.7087,-6.7082,-6.7208,-6.7229,-6.7298,-6.7333,-6.7302,-6.7484,-6.7451,-6.7386,-6.728,-6.7469,-6.7544,-6.7574,-6.7172,-6.7169,-6.7166,-6.7164,0,0,-6.7011,-6.7045,-6.7079,-6.7104,-6.7139,-6.7206,-6.7309,-6.7377,-6.7423,-6.7465,-6.7552,-6.7659,-6.76,-6.7636,-6.7607,-6.7684,-6.7869,-6.761,-6.761,-6.7658,-6.8072,-6.8121,-6.8157,-6.7832,-6.7838,-6.7843,-6.8069,0,-6.7233,-6.7412,-6.738,-6.7554,-6.7633,-6.7559,-6.7649,-6.7681,-6.7679,-6.7746,-6.7743,-6.7821,-6.7736,-6.7757,-6.783,-6.7831,-6.7951,-6.7814,-6.7913,-6.7917,-6.7907,-6.8195,-6.8248,-6.846,-6.8097,-6.8102,-6.8106,0,-6.7517,-6.757,-6.7752,-6.7775,-6.7807,-6.7889,-6.7948,-6.8013,-6.8047,-6.804,-6.8081,-6.8038,-6.8141,-6.8033,-6.8175,-6.8083,-6.8121,-6.8128,-6.8135,-6.8144,-6.8024,-6.8213,-6.8527,-6.856,-6.8151,-6.8147,-6.8144,0,-6.7725,-6.7842,-6.7966,-6.7989,-6.8019,-6.8078,-6.8094,-6.8122,-6.8164,-6.8216,-6.8243,-6.8307,-6.8342,-6.8392,-6.8367,-6.8291,-6.8515,-6.8404,-6.8512,-6.8513,-6.8564,-6.8561,-6.889,-6.8587,-6.8587,-6.8586,-6.8586,0,-6.7977,-6.8092,-6.806,-6.8136,-6.8262,-6.8224,-6.835,-6.8356,-6.8382,-6.8458,-6.8397,-6.847,-6.8433,-6.8503,-6.8485,-6.8606,-6.8622,-6.8619,-6.8613,-6.8626,-6.8626,-6.8651,-6.8636,-6.8595,-6.8593,-6.8591,-6.859,0,-6.8232,-6.8215,-6.8345,-6.8362,-6.8369,-6.8462,-6.8476,-6.8548,-6.8541,-6.8639,-6.8659,-6.8649,-6.8728,-6.8708,-6.8796,-6.8783,-6.8936,-6.891,-6.8925,-6.8919,-6.9028,-6.9019,-6.9385,-6.9432,-6.9098,-6.9102,-6.9104,0,-6.8395,-6.8481,-6.8507,-6.8554,-6.8574,-6.865,-6.8693,-6.8658,-6.8706,-6.8751,-6.8818,-6.8892,-6.895,-6.9081,-6.9081,-6.9148,-6.9124,-6.9248,-6.9134,-6.9144,-6.9127,-6.9123,-6.9132,-6.9271,-6.9275,-6.9278,-6.9281,0,-6.8685,-6.8672,-6.8737,-6.8799,-6.8852,-6.8899,-6.8941,-6.8983,-6.8951,-6.9007,-6.9088,-6.9133,-6.9222,-6.9297,-6.9358,-6.9373,-6.9323,-6.9316,-6.9345,-6.9359,-6.9364,-6.9364,-6.8988,-6.9308,-6.9306,-6.9304,-6.9302,-6.9301,-6.8899,-6.8973,-6.9003,-6.9077,-6.9104,-6.9144,-6.9213,-6.9214,-6.9281,-6.935,-6.9325,-6.9418,-6.945,-6.9526,-6.955,-6.9622,-6.9575,-6.9617,-6.9627,-6.9638,-6.9653,-6.9352,-6.9633,-6.9632,-6.9631,-6.963,-6.963,0,-6.9188,-6.9203,-6.9272,-6.9331,-6.939,-6.9336,-6.9379,-6.9432,-6.9514,-6.9548,-6.9606,-6.9699,-6.9771,-6.9777,-6.9845,-6.9902,-6.988,-6.9921,-6.9917,-6.9922,-6.969,-6.9659,-6.9937,-6.9937,-6.9937,-6.9937,-6.9937,-6.9937,-6.9345,-6.9466,-6.9457,-6.9592,-6.9606,-6.9697,-6.9726,-6.9763,-6.979,-6.9896,-6.9956,-6.9959,-6.9982,-7.0051,-7.0115,-7.0115,-7.0143,-7.0193,-7.0184,-6.9968,-6.9938,-6.9909,-6.9879,-7.0199,-7.02,-7.041,-7.0412,-7.0413]}]]